Waarnemingen

Advertentie
Mijn weer
Lille, Frankrijk (7015): temperatuur & dauwpunt: 15.01.2017 11:00:00 - 21.01.2017 11:00:00 (CET)Lille, Frankrijk (7015): temperatuur 5cm: 15.01.2017 11:00:00 - 21.01.2017 11:00:00 (CET)Lille, Frankrijk (7015): temperatuur -20cm & temperatuur -100cm: 15.01.2017 11:00:00 - 21.01.2017 11:00:00 (CET)Lille, Frankrijk (7015): windsnelheid & windstoten: 15.01.2017 11:00:00 - 21.01.2017 11:00:00 (CET)Lille, Frankrijk (7015): windrichting: 15.01.2017 11:00:00 - 21.01.2017 11:00:00 (CET)Lille, Frankrijk (7015): luchtdruk: 15.01.2017 11:00:00 - 21.01.2017 11:00:00 (CET)Lille, Frankrijk (7015): zicht: 15.01.2017 11:00:00 - 21.01.2017 11:00:00 (CET)Lille, Frankrijk (7015): Zonneschijnduur: 15.01.2017 11:00:00 - 21.01.2017 11:00:00 (CET)Lille, Frankrijk (7015): neerslag: 15.01.2017 11:00:00 - 21.01.2017 11:00:00 (CET)
Datum & Tijd tt [°C] td [°C] tt 5cm [°C] tt -20cm [°C] tt -100cm [°C] ff [km/u] ff [kn] fx [km/u] fx [kn] dd ppp [hPa] vv [km] sd [min] rr [mm]
21.01.2017 11:00:00 0,3 -5,5 -1,2 1,1 6,0 10 5 15 8 ZO 1029,5 13 60 0,0
21.01.2017 10:00:00 -2,7 -5,3 -5,8 1,1 6,0 4 2 8 4 NNO 1029,5 8 45 0,0
21.01.2017 09:00:00 -4,9 -6,6 -7,4 1,1 6,0 5 3 6 4 ONO 1029,4 9 3 0,0
21.01.2017 08:00:00 -4,4 -6,7 -5,8 1,2 6,0 5 3 10 5 ONO 1029,4 9 0 0,0
21.01.2017 07:00:00 -3,8 -6,4 -4,8 1,1 6,0 9 5 13 7 ONO 1029,3 12 0 0,0
21.01.2017 06:00:00 -3,3 -6,4 -4,4 1,2 6,0 8 4 11 6 ONO 1029,6 14 0 0,0
21.01.2017 05:00:00 -2,6 -6,6 -3,8 1,2 6,0 11 6 13 7 ONO 1029,8 19 0 0,0
21.01.2017 04:00:00 -2,3 -7,0 -4,0 1,2 6,0 9 5 13 7 ONO 1030,2 23 0 0,0
21.01.2017 03:00:00 -2,6 -7,7 -3,8 1,2 6,1 5 3 10 5 ONO 1030,6 25 0 0,0
21.01.2017 02:00:00 -2,0 -8,1 -3,7 1,2 6,1 8 4 13 7 ONO 1031,0 31 0 0,0
21.01.2017 01:00:00 -1,9 -8,6 -3,3 1,2 6,0 9 5 14 8 O 1031,2 33 0 0,0
21.01.2017 00:00:00 -1,2 -8,9 -2,4 1,2 6,1 10 5 16 9 O 1031,4 29 0 0,0
20.01.2017 23:00:00 -0,7 -8,6 -2,0 1,2 6,1 11 6 14 8 ONO 1031,5 30 0 0,0
20.01.2017 22:00:00 -0,3 -8,5 -1,4 1,2 6,0 11 6 17 9 ONO 1031,4 29 0 0,0
20.01.2017 21:00:00 0,9 -8,1 -0,4 1,2 6,1 14 7 16 9 ONO 1031,3 30 0 0,0
20.01.2017 20:00:00 0,9 -6,9 -0,3 1,2 6,1 13 7 24 13 ONO 1031,4 26 0 0,0
20.01.2017 19:00:00 1,2 -6,4 0,1 1,2 6,1 12 7 16 9 ONO 1031,4 28 0 0,0
20.01.2017 18:00:00 1,6 -5,8 0,5 1,2 6,1 13 7 32 18 ONO 1031,4 24 0 0,0
20.01.2017 17:00:00 2,7 -5,5 2,3 1,2 6,1 15 8 29 16 ONO 1031,4 25 50 0,0
20.01.2017 16:00:00 3,3 -4,7 6,0 1,2 6,1 11 6 20 11 ONO 1031,6 17 60 0,0
20.01.2017 15:00:00 3,5 -5,2 6,0 1,2 6,1 12 7 21 12 ONO 1031,9 17 60 0,0
20.01.2017 14:00:00 3,1 -5,3 5,7 1,2 6,1 13 7 22 12 O 1032,1 16 60 0,0
20.01.2017 13:00:00 2,1 -5,3 3,4 1,2 6,1 15 8 21 12 O 1032,6 16 60 0,0
20.01.2017 12:00:00 1,0 -5,5 2,4 1,2 6,2 11 6 19 10 ONO 1033,3 12 60 0,0
20.01.2017 11:00:00 -0,4 -6,0 0,7 1,2 6,1 14 7 20 11 ONO 1033,9 12 60 0,0
20.01.2017 10:00:00 -2,2 -6,0 -3,7 1,3 6,2 11 6 19 10 ONO 1033,9 11 44 0,0
20.01.2017 09:00:00 -3,4 -6,2 -3,9 1,3 6,2 10 5 13 7 ONO 1033,6 8 4 0,0
20.01.2017 08:00:00 -3,2 -6,0 -3,8 1,3 6,2 10 5 17 9 NO 1033,7 9 0 0,0
20.01.2017 07:00:00 -3,1 -5,6 -3,7 1,3 6,2 11 6 20 11 NO 1033,8 8 0 0,0
20.01.2017 06:00:00 -3,1 -5,9 -3,7 1,3 6,2 9 5 19 10 NO 1034,0 9 0 0,0
20.01.2017 05:00:00 -2,6 -5,9 -3,0 1,3 6,2 13 7 20 11 NO 1034,2 10 0 0,0
20.01.2017 04:00:00 -2,3 -5,8 -2,8 1,3 6,2 13 7 17 9 NO 1034,5 11 0 0,0
20.01.2017 03:00:00 -1,9 -6,3 -2,5 1,4 6,2 10 5 15 8 NO 1034,7 14 0 0,0
20.01.2017 02:00:00 -1,7 -6,6 -2,5 1,4 6,2 12 7 16 9 ONO 1034,7 19 0 0,0
20.01.2017 01:00:00 -1,4 -6,7 -2,3 1,4 6,2 13 7 16 9 ONO 1035,0 20 0 0,0
20.01.2017 00:00:00 -1,1 -6,9 -2,0 1,4 6,3 13 7 18 10 ONO 1035,4 21 0 0,0
19.01.2017 23:00:00 -0,9 -6,7 -1,8 1,4 6,2 14 7 23 12 ONO 1035,5 21 0 0,0
19.01.2017 22:00:00 -0,6 -6,6 -1,4 1,4 6,3 16 8 23 12 ONO 1035,7 22 0 0,0
19.01.2017 21:00:00 -0,4 -5,6 -1,4 1,4 6,3 11 6 18 10 ONO 1035,7 16 0 0,0
19.01.2017 20:00:00 -0,1 -5,1 -0,9 1,4 6,3 13 7 19 10 NO 1035,6 15 0 0,0
19.01.2017 19:00:00 0,5 -5,1 -0,2 1,4 6,3 11 6 32 17 ONO 1035,3 15 0 0,0
19.01.2017 18:00:00 0,8 -4,6 0,2 1,4 6,3 16 9 33 18 NO 1035,0 14 0 0,0
19.01.2017 17:00:00 1,4 -5,1 0,9 1,4 6,3 15 8 21 12 ONO 1035,2 15 47 0,0
19.01.2017 16:00:00 2,0 -4,5 4,4 1,4 6,3 14 7 20 11 O 1035,4 11 60 0,0
19.01.2017 15:00:00 1,9 -4,2 4,8 1,4 6,3 13 7 19 10 O 1035,7 10 60 0,0
19.01.2017 14:00:00 1,5 -4,4 3,9 1,4 6,3 12 7 19 10 O 1035,8 10 60 0,0
19.01.2017 13:00:00 0,5 -4,9 2,0 1,4 6,3 13 7 19 10 ONO 1036,0 6 60 0,0
19.01.2017 12:00:00 -0,7 -4,8 0,9 1,5 6,4 14 7 21 12 O 1036,7 6 60 0,0
19.01.2017 11:00:00 -1,7 -4,9 -0,4 1,5 6,4 13 7 21 11 ONO 1037,0 7 60 0,0
19.01.2017 10:00:00 -2,8 -5,0 -4,0 1,5 6,4 11 6 22 12 ONO 1036,9 6 38 0,0
19.01.2017 09:00:00 -3,8 -5,2 -4,2 1,5 6,4 11 6 15 8 NO 1036,6 4,9 0 0,0
19.01.2017 08:00:00 -3,6 -5,3 -4,3 1,5 6,4 10 5 18 10 ONO 1036,3 5 0 0,0
19.01.2017 07:00:00 -3,7 -4,8 -4,3 1,5 6,4 12 7 19 10 NO 1036,3 4,1 0 0,0
19.01.2017 06:00:00 -3,6 -4,6 -4,2 1,6 6,4 13 7 17 9 NO 1036,4 3,6 0 0,0
19.01.2017 05:00:00 -3,7 -4,7 -4,2 1,6 6,4 12 7 19 10 NO 1036,5 3,3 0 0,0
19.01.2017 04:00:00 -3,6 -4,6 -4,6 1,6 6,4 14 8 19 10 NNO 1036,8 3,0 0 0,0
19.01.2017 03:00:00 -3,8 -4,9 -4,9 1,6 6,4 10 5 14 7 NNO 1036,9 3,5 0 0,0
19.01.2017 02:00:00 -3,7 -5,0 -4,6 1,6 6,4 8 4 13 7 NNO 1037,1 4,0 0 0,0
19.01.2017 01:00:00 -3,2 -4,8 -3,7 1,6 6,4 10 5 14 8 NO 1037,3 4,6 0 0,0
19.01.2017 00:00:00 -2,9 -4,3 -3,8 1,7 6,4 9 5 14 8 NO 1037,4 3,9 0 0,0
18.01.2017 23:00:00 -2,7 -4,1 -3,5 1,7 6,4 8 4 11 6 NO 1037,6 3,5 0 0,0
18.01.2017 22:00:00 -2,8 -4,2 -3,6 1,7 6,5 9 5 11 6 NO 1037,5 3,5 0 0,0
18.01.2017 21:00:00 -2,2 -3,9 -3,0 1,7 6,5 10 5 14 7 NO 1037,6 4,1 0 0,0
18.01.2017 20:00:00 -1,9 -3,8 -2,7 1,7 6,5 8 5 17 9 NO 1037,7 4,7 0 0,0
18.01.2017 19:00:00 -1,6 -3,6 -2,1 1,7 6,4 14 8 22 12 NO 1037,6 5 0 0,0
18.01.2017 18:00:00 -1,0 -3,7 -1,6 1,8 6,5 11 6 26 14 NO 1037,8 6 0 0,0
18.01.2017 17:00:00 -0,5 -4,0 -0,5 1,8 6,5 14 8 23 12 NO 1037,9 7 41 0,0
18.01.2017 16:00:00 -0,3 -4,2 0,7 1,7 6,4 14 8 24 13 ONO 1037,9 8 47 0,0
18.01.2017 15:00:00 -0,2 -4,1 1,4 1,8 6,5 16 9 23 13 NO 1037,9 8 60 0,0
18.01.2017 14:00:00 -0,5 -3,7 2,0 1,8 6,5 16 9 24 13 ONO 1038,0 6 60 0,0
18.01.2017 13:00:00 -1,1 -3,8 0,7 1,8 6,5 16 9 22 12 ONO 1038,4 6 60 0,0
18.01.2017 12:00:00 -2,2 -4,5 -0,7 1,8 6,5 15 8 24 13 ONO 1038,8 4,7 60 0,0
18.01.2017 11:00:00 -3,2 -4,6 -3,3 1,8 6,5 17 9 25 13 ONO 1039,1 4,1 52 0,0
18.01.2017 10:00:00 -4,3 -5,1 -4,9 1,9 6,5 15 8 22 12 NO 1039,2 3,2 0 0,0
18.01.2017 09:00:00 -4,8 -5,6 -5,2 1,9 6,5 10 5 16 9 ONO 1038,9 2,8 0 0,0
18.01.2017 08:00:00 -4,3 -5,3 -4,6 1,9 6,5 10 5 21 11 NO 1038,5 3,2 0 0,0
18.01.2017 07:00:00 -4,2 -5,2 -4,6 2,0 6,5 14 7 18 10 NO 1038,1 3,3 0 0,0
18.01.2017 06:00:00 -4,1 -4,9 -4,9 2,0 6,5 11 6 15 8 NO 1038,2 3,0 0 0,0
18.01.2017 05:00:00 -4,2 -5,0 -4,8 2,0 6,5 10 6 14 8 N 1038,3 2,5 0 0,0
18.01.2017 04:00:00 -4,0 -4,8 -4,5 2,0 6,5 9 5 13 7 NO 1038,4 2,7 0 0,0
18.01.2017 03:00:00 -3,7 -4,7 -4,4 2,1 6,5 10 5 14 7 NNO 1038,5 3,1 0 0,0
18.01.2017 02:00:00 -3,3 -4,6 -3,8 2,1 6,5 12 6 16 8 NO 1038,5 3,5 0 0,0
18.01.2017 01:00:00 -2,9 -4,5 -3,7 2,1 6,6 11 6 14 8 NO 1038,7 3,8 0 0,0
18.01.2017 00:00:00 -2,8 -4,5 -3,2 2,1 6,5 11 6 18 10 NO 1038,5 4,2 0 0,0
17.01.2017 23:00:00 -2,6 -4,5 -3,0 2,2 6,6 14 7 18 10 NO 1038,6 4,4 0 0,0
17.01.2017 22:00:00 -2,3 -4,3 -2,8 2,2 6,6 10 6 19 10 NO 1038,5 4,5 0 0,0
17.01.2017 21:00:00 -2,3 -4,3 -2,7 2,3 6,6 12 6 16 9 NO 1038,5 4,5 0 0,0
17.01.2017 20:00:00 -2,0 -4,0 -2,6 2,3 6,5 11 6 15 8 NO 1038,2 4,5 0 0,0
17.01.2017 19:00:00 -1,8 -3,8 -2,8 2,3 6,6 11 6 17 9 NO 1038,1 4,5 0 0,0
17.01.2017 18:00:00 -1,7 -3,6 -2,4 2,3 6,6 9 5 20 11 NNO 1038,0 4,7 0 0,0
17.01.2017 17:00:00 -1,2 -4,2 -1,4 2,3 6,6 11 6 19 11 ONO 1037,5 6 40 0,0
17.01.2017 16:00:00 -0,8 -4,0 1,5 2,4 6,6 13 7 19 11 ONO 1037,3 6 60 0,0
17.01.2017 15:00:00 -0,6 -4,0 2,1 2,4 6,5 10 5 17 9 NO 1037,2 6 60 0,0
17.01.2017 14:00:00 -0,9 -3,8 0,5 2,4 6,6 11 6 17 9 O 1037,4 6 60 0,0
17.01.2017 13:00:00 -1,7 -3,7 -1,1 2,4 6,6 11 6 17 9 O 1037,7 4,4 34 0,0
17.01.2017 12:00:00 -2,0 -4,0 -1,9 2,4 6,6 10 6 19 10 O 1037,8 4,1 14 0,0
17.01.2017 11:00:00 -2,4 -4,1 -2,3 2,5 6,6 12 6 19 10 ONO 1037,6 3,9 0 0,0
17.01.2017 10:00:00 -2,4 -4,0 -3,1 2,5 6,6 9 5 15 8 ONO 1037,1 3,8 0 0,0
17.01.2017 09:00:00 -2,9 -4,3 -3,5 2,5 6,6 9 5 16 9 ONO 1036,6 3,7 0 0,0
17.01.2017 08:00:00 -2,9 -4,3 -3,3 2,6 6,6 9 5 21 12 ONO 1036,0 4,3 0 0,0
17.01.2017 07:00:00 -2,9 -4,2 -3,1 2,6 6,6 11 6 20 11 ONO 1035,4 4,1 0 0,0
17.01.2017 06:00:00 -2,9 -3,6 -3,0 2,6 6,6 9 5 19 10 ONO 1035,0 4,8 0 0,0
17.01.2017 05:00:00 -2,9 -3,4 -2,9 2,7 6,6 11 6 17 9 NO 1034,7 3,2 0 0,0
17.01.2017 04:00:00 -2,6 -3,0 -2,7 2,7 6,6 8 4 20 11 OZO 1034,3 3,2 0 0,0
17.01.2017 03:00:00 -2,6 -3,2 -4,5 2,8 6,6 14 8 22 12 ONO 1033,9 3,2 0 0,0
17.01.2017 02:00:00 -2,9 -3,7 -4,4 2,9 6,7 8 5 12 7 ONO 1033,4 3,5 0 0,0
17.01.2017 01:00:00 -2,3 -3,0 -4,0 3,0 6,6 8 4 10 5 ONO 1033,4 3,5 0 0,0
17.01.2017 00:00:00 -1,8 -2,6 -3,3 3,1 6,7 8 4 10 6 NO 1033,0 4,9 0 0,0
16.01.2017 23:00:00 -1,5 -2,2 -3,2 3,2 6,6 8 4 10 5 ONO 1032,4 3,6 0 0,0
16.01.2017 22:00:00 -1,3 -1,9 -2,8 3,3 6,7 6 4 12 6 O 1031,9 2,7 0 0,0
16.01.2017 21:00:00 -0,5 -0,9 -2,5 3,4 6,7 11 6 15 8 O 1031,1 2,4 0 0,0
16.01.2017 20:00:00 -0,2 -0,5 -4,6 3,5 6,7 4 2 6 4 NO 1030,2 1,3 0 0,0
16.01.2017 19:00:00 -0,6 -1,2 -4,0 3,6 6,7 0 0 3 2 N 1029,6 0,4 0 0,0
16.01.2017 18:00:00 0,6 -0,3 -1,4 3,7 6,7 0 0 5 3 N 1029,1 1,5 0 0,0
16.01.2017 17:00:00 2,1 0,6 1,5 3,7 6,7 5 3 19 11 ONO 1028,5 5 0 0,0
16.01.2017 16:00:00 2,8 1,8 3,3 3,6 6,7 8 4 12 7 N 1028,2 4,9 0 0,0
16.01.2017 15:00:00 2,6 2,0 3,3 3,5 6,7 6 3 12 7 N 1027,7 5 0 0,0
16.01.2017 14:00:00 2,4 2,4 2,8 3,4 6,7 5 3 9 5 NNW 1027,7 4,5 0 0,0
16.01.2017 13:00:00 1,8 1,8 2,0 3,3 6,7 8 4 14 7 NW 1027,8 3,2 0 0,0
16.01.2017 12:00:00 1,3 1,3 0,9 3,2 6,7 8 5 11 6 WNW 1027,8 3,1 0 0,0
16.01.2017 11:00:00 0,6 0,6 0,3 3,1 6,7 5 3 8 5 WNW 1027,7 1,4 0 0,0
16.01.2017 10:00:00 0,2 0,2 0,1 3,1 6,7 6 3 9 5 NW 1027,3 0,3 0 0,0
16.01.2017 09:00:00 -0,1 -0,1 -0,3 3,1 6,7 9 5 13 7 WNW 1026,9 0,2 0 0,0
16.01.2017 08:00:00 -0,3 -0,3 -0,4 3,2 6,7 4 2 6 3 W 1026,3 0,2 0 0,0
16.01.2017 07:00:00 -0,5 -0,5 -0,8 3,1 6,7 4 2 5 3 WNW 1026,2 0,2 0 0,0
16.01.2017 06:00:00 -0,5 -0,5 -1,0 3,2 6,7 0 0 5 3 N 1026,0 0,1 0 0,0
16.01.2017 05:00:00 -1,3 -1,4 -2,6 3,3 6,7 4 2 5 3 N 1025,6 0,1 0 0,0
16.01.2017 04:00:00 -1,8 -1,9 -2,6 3,3 6,7 0 0 5 3 N 1025,1 0,2 0 0,0
16.01.2017 03:00:00 -1,3 -1,4 -3,0 3,4 6,7 4 2 8 4 N 1025,1 0,1 0 0,0
16.01.2017 02:00:00 -0,6 -0,9 -2,5 3,5 6,7 5 3 9 5 N 1024,7 0,2 0 0,0
16.01.2017 01:00:00 0,4 0,1 -0,5 3,5 6,7 5 3 8 5 N 1024,3 2,0 0 0,0
16.01.2017 00:00:00 0,6 0,2 -0,3 3,6 6,7 0 0 8 4 N 1023,7 2,6 0 0,0
15.01.2017 23:00:00 1,2 0,9 1,0 3,6 6,7 6 3 11 6 NO 1023,6 3,6 0 0,0
15.01.2017 22:00:00 1,3 1,0 0,5 3,6 6,7 9 5 12 6 NO 1023,2 6 0 0,0
15.01.2017 21:00:00 1,4 0,8 1,1 3,7 6,8 6 3 14 7 Z 1022,8 8 0 0,0
15.01.2017 20:00:00 1,6 1,2 1,3 3,7 6,7 8 4 15 8 Z 1022,5 10 0 0,0
15.01.2017 19:00:00 1,6 1,2 1,3 3,7 6,8 9 5 13 7 ZZO 1022,3 8 0 0,0
15.01.2017 18:00:00 1,6 1,0 1,3 3,7 6,8 9 5 15 8 Z 1021,9 10 0 0,4
15.01.2017 17:00:00 1,9 1,0 1,6 3,7 6,8 10 5 15 8 Z 1022,0 19 0 0,4
15.01.2017 16:00:00 2,4 1,2 2,2 3,6 6,8 8 4 15 8 W 1022,0 25 0 0,4
15.01.2017 15:00:00 2,8 1,5 2,7 3,5 6,7 11 6 28 15 W 1022,2 46 0 0,0
15.01.2017 14:00:00 3,1 1,0 2,8 3,4 6,8 18 10 26 14 WNW 1022,4 29 0 0,0
15.01.2017 13:00:00 3,0 1,5 2,4 3,3 6,8 12 6 15 8 W 1022,8 16 0 0,0
15.01.2017 12:00:00 2,2 1,2 1,9 3,3 6,8 10 5 13 7 W 1023,2 13 0 0,0
15.01.2017 11:00:00 1,6 0,9 1,4 3,2 6,8 9 5 11 6 W 1023,2 13 0 0,0

tt = temperatuur
td = dauwpunt
tt 5cm = temperatuur 5cm
tt -20cm = temperatuur -20cm
tt -100cm = temperatuur -100cm
ff = windsnelheid
fx = windstoten
dd = windrichting
ppp = luchtdruk
vv = zicht
sd = Zonneschijnduur
rr = neerslag

Weerstations in de omgeving